Regional Weather Roundup
Issued by NWS Jackson, KY

Home | Current Version | Previous Version | Graphics & Text | Print | Product List | Glossary On
Versions: 1 2 3 4 5 6 7 8 9 10 11 12 13 14 15 16 17 18 19 20 21 22 23 24 25 26 27 28 29 30 31 32 33 34 35 36 37 38 39 40 41 42 43 44 45 46 47 48 49 50
000
ASUS43 KJKL 260810
RWRJKL

EAST KENTUCKY HOURLY WEATHER ROUNDUP
NATIONAL WEATHER SERVICE JACKSON KY
400 AM EDT THU MAR 26 2015

NOTE: "FAIR" INDICATES FEW OR NO CLOUDS BELOW 12,000 FEET WITH
NO SIGNIFICANT WEATHER AND/OR OBSTRUCTIONS TO VISIBILITY.

* THESE REPORTS ARE NOT UNDER NWS QUALITY CONTROL AND MAY NOT
  REPORT WEATHER SUCH AS PRECIPITATION AND FOG.

KYZ079-080-083-085-087-088-110-112-115-119-120-260900
...EASTERN KENTUCKY...

CITY           SKY/WX    TMP DP  RH WIND       PRES   REMARKS
JACKSON        MOCLDY    59  46  62 VRB3      29.92F
LONDON         CLOUDY    61  47  59 S3        29.91F
SOMERSET*      CLOUDY    61  52  72 S5        29.90F
MONTICELLO*    PTCLDY    66  56  70 S13G23    29.91F
MIDDLESBORO*   MOCLDY    61  52  73 S5        29.96F
HAZARD APT*    PTSUNNY   61  48  63 S3        29.92F
BLACK MTN*       N/A     52  50  93 SE1         N/A
PIKEVILLE APT* MOCLDY    63  50  63 S6        29.92F
BIG SANDY*     CLOUDY    62  50  63 S7        29.92F
MOREHEAD APT*  PTSUNNY   59  48  67 VRB6      29.90F
$$

KYZ035-036-041-042-044-050-067-078-099-260900
...CENTRAL KENTUCKY...

CITY           SKY/WX    TMP DP  RH WIND       PRES   REMARKS
MT STERLING*   MOCLDY    59  50  72 S8        29.88F
FLEMING/MASON* CLOUDY    54  48  82 SE6       29.86F
DANVILLE*      MOCLDY    54  48  82 SW3       29.88F
RICHMOND*      MOCLDY    63  50  63 S8        29.88F
LEXINGTON      MOCLDY    57  49  74 S9        29.86F
FRANKFORT      MOCLDY    55  51  86 CALM      29.82F
$$

KYZ091>093-OHZ055-061-077-WVZ005-015-034-035-042-260900
...SOUTHERN OHIO/WEST VIRGINIA...

CITY           SKY/WX    TMP DP  RH WIND       PRES   REMARKS
COVINGTON      LGT RAIN  50  46  86 NW18      29.92R FOG
COLUMBUS       CLOUDY    44  42  93 CALM      29.91F
DAYTON         CLOUDY    44  43  96 N13       29.92F FOG
WILMINGTON     CLOUDY    47  44  90 NE5       29.89F
HUNTINGTON     MOCLDY    55  48  77 CALM      29.89F
CHARLESTON     MOCLDY    51  46  83 CALM      29.90F
PINEVILLE*     PTCLDY    51  50  97 MISG      30.01F
BECKLEY        CLEAR     55  48  77 S9        29.98F
BLUEFIELD      MOCLDY    59  51  75 S13G22    30.02F
$$

VAZ002-007-008-TNZ017-027-036-066-071-260900
...SOUTHWEST VIRGINIA/EAST TENNESSEE...

CITY           SKY/WX    TMP DP  RH WIND       PRES   REMARKS
WISE*          MOCLDY    57  50  77 S13       30.00F
JONESVILLE*    PTSUNNY   61  54  77 E3        29.98F
ABINGDON*      MOCLDY    56  51  82 CALM      29.99F
BRISTOL        PTCLDY    58  52  80 CALM      29.97F
KNOXVILLE      CLOUDY    64  53  67 S12       29.95F
OAK RIDGE      CLOUDY    66  56  70 VRB6      29.97F
CROSSVILLE     CLOUDY    62  55  77 S8        29.97F
NASHVILLE      CLOUDY    63  51  65 CALM      29.89F
$$

...KEY TO REMARKS...
VSB - VISIBILITY IN MILES
WCI - WIND CHILL INDEX
HX  - HEAT INDEX

$$



USA.gov is the U.S. government's official web portal to all federal, state and local government web resources and services.